Time,TemperatureF,DewpointF,PressureIn,WindDirection,WindDirectionDegrees,WindSpeedMPH,WindSpeedGustMPH,Humidity,HourlyPrecipIn,Conditions,Clouds,dailyrainin,SoftwareType,DateUTC
2013-01-20 00:01:00,63.7,60.7,30.12,NNE,30,0.2,1.1,90,0.00,OVC,,0.00,WeatherDisplay:10.37,2013-01-20 05:01:00,
2013-01-20 00:02:00,63.7,60.7,30.12,NNE,30,0.2,1.1,90,0.00,OVC,,0.00,WeatherDisplay:10.37,2013-01-20 05:02:00,
2013-01-20 00:03:00,63.8,60.8,30.12,NNE,30,0.0,0.0,90,0.00,OVC,,0.00,WeatherDisplay:10.37,2013-01-20 05:03:00,
2013-01-20 00:08:00,63.8,60.8,30.12,NE,41,0.0,1.1,90,0.00,OVC,,0.00,WeatherDisplay:10.37,2013-01-20 05:08:00,
2013-01-20 00:13:00,63.7,61.0,30.12,North,352,0.0,1.1,91,0.00,OVC,,0.00,WeatherDisplay:10.37,2013-01-20 05:13:00,
2013-01-20 00:18:00,63.6,60.9,30.12,North,9,0.2,1.1,91,0.00,OVC,,0.00,WeatherDisplay:10.37,2013-01-20 05:18:00,
2013-01-20 00:23:00,63.4,60.7,30.12,NNE,12,2.1,3.5,91,0.00,OVC,,0.00,WeatherDisplay:10.37,2013-01-20 05:23:00,
2013-01-20 00:28:00,63.3,60.6,30.11,ENE,58,0.0,1.1,91,0.00,OVC,,0.00,WeatherDisplay:10.37,2013-01-20 05:28:00,
2013-01-20 00:33:00,63.2,60.5,30.11,NNE,31,0.0,0.0,91,0.00,OVC,,0.00,WeatherDisplay:10.37,2013-01-20 05:33:00,
2013-01-20 00:38:00,63.1,60.4,30.10,NE,50,0.8,3.5,91,0.00,OVC,,0.00,WeatherDisplay:10.37,2013-01-20 05:38:00,
2013-01-20 00:43:00,63.0,60.6,30.11,ENE,65,0.0,0.0,92,0.00,OVC,,0.00,WeatherDisplay:10.37,2013-01-20 05:43:00,
2013-01-20 00:48:00,62.9,60.5,30.11,NNE,33,1.1,5.0,92,0.00,OVC,,0.00,WeatherDisplay:10.37,2013-01-20 05:48:00,
2013-01-20 00:53:00,62.9,60.5,30.11,NE,41,0.0,3.5,92,0.00,OVC,,0.00,WeatherDisplay:10.37,2013-01-20 05:53:00,
2013-01-20 00:58:00,63.0,60.6,30.10,NNE,33,1.2,3.5,92,0.00,OVC,,0.00,WeatherDisplay:10.37,2013-01-20 05:58:00,
2013-01-20 01:03:00,63.0,60.6,30.10,NNE,18,1.1,2.3,92,0.00,OVC,,0.00,WeatherDisplay:10.37,2013-01-20 06:03:00,
2013-01-20 01:08:00,63.0,60.6,30.10,NNE,29,0.4,1.1,92,0.00,OVC,,0.00,WeatherDisplay:10.37,2013-01-20 06:08:00,
2013-01-20 01:13:00,63.0,60.6,30.10,NE,37,4.5,5.8,92,0.00,OVC,,0.00,WeatherDisplay:10.37,2013-01-20 06:13:00,
2013-01-20 01:18:00,63.1,60.4,30.10,North,357,1.9,3.5,91,0.00,OVC,,0.00,WeatherDisplay:10.37,2013-01-20 06:18:00,
2013-01-20 01:23:00,63.0,60.3,30.10,NNE,33,3.8,4.0,91,0.00,OVC,,0.00,WeatherDisplay:10.37,2013-01-20 06:23:00,
2013-01-20 01:28:00,63.0,60.3,30.10,NNE,12,1.7,4.6,91,0.00,OVC,,0.00,WeatherDisplay:10.37,2013-01-20 06:28:00,
2013-01-20 01:33:00,63.0,60.3,30.10,North,357,3.7,4.6,91,0.00,OVC,,0.00,WeatherDisplay:10.37,2013-01-20 06:33:00,
2013-01-20 01:38:00,62.9,60.2,30.10,NNE,23,1.6,3.5,91,0.00,OVC,,0.00,WeatherDisplay:10.37,2013-01-20 06:38:00,
2013-01-20 01:43:00,62.9,60.2,30.10,North,350,0.6,3.0,91,0.00,OVC,,0.00,WeatherDisplay:10.37,2013-01-20 06:43:00,
2013-01-20 01:48:00,62.9,60.2,30.10,NNE,27,1.3,3.5,91,0.00,OVC,,0.00,WeatherDisplay:10.37,2013-01-20 06:48:00,
2013-01-20 01:53:00,62.9,60.2,30.11,NE,40,0.8,2.3,91,0.00,OVC,,0.00,WeatherDisplay:10.37,2013-01-20 06:53:00,
2013-01-20 01:58:00,62.8,60.1,30.10,NE,40,3.0,3.5,91,0.00,OVC,,0.00,WeatherDisplay:10.37,2013-01-20 06:58:00,
2013-01-20 02:03:00,62.7,59.7,30.10,NNE,30,0.2,2.3,90,0.00,OVC,,0.00,WeatherDisplay:10.37,2013-01-20 07:03:00,
2013-01-20 02:08:00,62.6,59.6,30.11,NNE,25,0.0,1.1,90,0.00,OVC,,0.00,WeatherDisplay:10.37,2013-01-20 07:08:00,
2013-01-20 02:13:00,62.6,59.6,30.10,ENE,75,0.0,1.1,90,0.00,BKN,,0.00,WeatherDisplay:10.37,2013-01-20 07:13:00,
2013-01-20 02:18:00,62.5,59.5,30.10,NNE,16,0.6,3.5,90,0.00,BKN,,0.00,WeatherDisplay:10.37,2013-01-20 07:18:00,
2013-01-20 02:23:00,62.5,59.5,30.11,NE,37,0.8,4.0,90,0.00,BKN,,0.00,WeatherDisplay:10.37,2013-01-20 07:23:00,
2013-01-20 02:28:00,62.5,59.5,30.10,NE,40,1.0,4.6,90,0.00,BKN,,0.00,WeatherDisplay:10.37,2013-01-20 07:28:00,
2013-01-20 02:33:00,62.4,59.4,30.11,NE,41,1.2,3.5,90,0.00,BKN,,0.00,WeatherDisplay:10.37,2013-01-20 07:33:00,
2013-01-20 02:38:00,62.4,59.4,30.10,NE,43,1.1,1.1,90,0.00,BKN,,0.00,WeatherDisplay:10.37,2013-01-20 07:38:00,
2013-01-20 02:43:00,62.2,59.2,30.10,NNE,23,2.1,2.3,90,0.00,BKN,,0.00,WeatherDisplay:10.37,2013-01-20 07:43:00,
2013-01-20 02:48:00,62.2,59.2,30.10,NNE,23,0.6,3.5,90,0.00,BKN,,0.00,WeatherDisplay:10.37,2013-01-20 07:48:00,
2013-01-20 02:53:00,62.1,59.1,30.10,NNE,26,0.9,3.5,90,0.00,BKN,,0.00,WeatherDisplay:10.37,2013-01-20 07:53:00,
2013-01-20 02:58:00,62.1,59.1,30.10,NE,43,1.1,3.5,90,0.00,BKN,,0.00,WeatherDisplay:10.37,2013-01-20 07:58:00,
2013-01-20 03:03:00,62.0,59.0,30.10,North,11,0.3,0.0,90,0.00,BKN,,0.00,WeatherDisplay:10.37,2013-01-20 08:03:00,
2013-01-20 03:08:00,62.0,59.0,30.11,North,354,1.3,2.3,90,0.00,BKN,,0.00,WeatherDisplay:10.37,2013-01-20 08:08:00,
2013-01-20 03:13:00,62.0,59.0,30.10,NNE,27,0.5,3.5,90,0.00,BKN,,0.00,WeatherDisplay:10.37,2013-01-20 08:13:00,
2013-01-20 03:18:00,61.9,58.9,30.10,NNE,27,1.7,3.5,90,0.00,BKN,,0.00,WeatherDisplay:10.37,2013-01-20 08:18:00,
2013-01-20 03:23:00,61.9,58.9,30.10,NE,46,0.0,2.3,90,0.00,BKN,,0.00,WeatherDisplay:10.37,2013-01-20 08:23:00,
2013-01-20 03:28:00,61.8,58.8,30.10,NE,34,2.5,3.5,90,0.00,BKN,,0.00,WeatherDisplay:10.37,2013-01-20 08:28:00,
2013-01-20 03:33:00,61.9,58.9,30.10,NNE,19,1.9,3.0,90,0.00,BKN,,0.00,WeatherDisplay:10.37,2013-01-20 08:33:00,
2013-01-20 03:38:00,61.9,58.9,30.10,NNE,21,1.8,3.5,90,0.00,BKN,,0.00,WeatherDisplay:10.37,2013-01-20 08:38:00,
2013-01-20 03:43:00,61.9,58.9,30.10,North,9,3.3,5.8,90,0.00,BKN,,0.00,WeatherDisplay:10.37,2013-01-20 08:43:00,
2013-01-20 03:48:00,61.9,58.9,30.10,NNE,27,0.8,3.5,90,0.00,BKN,,0.00,WeatherDisplay:10.37,2013-01-20 08:48:00,
2013-01-20 03:53:00,61.8,58.8,30.10,NE,49,3.1,6.9,90,0.00,BKN,,0.00,WeatherDisplay:10.37,2013-01-20 08:53:00,
2013-01-20 03:58:00,61.8,58.8,30.10,NNE,29,2.8,4.6,90,0.00,BKN,,0.00,WeatherDisplay:10.37,2013-01-20 08:58:00,
2013-01-20 04:03:00,61.8,58.8,30.10,NNE,23,0.0,1.1,90,0.00,BKN,,0.00,WeatherDisplay:10.37,2013-01-20 09:03:00,
2013-01-20 04:08:00,61.7,58.7,30.10,NNE,29,0.1,3.5,90,0.00,BKN,,0.00,WeatherDisplay:10.37,2013-01-20 09:08:00,
2013-01-20 04:13:00,61.7,59.0,30.10,NNE,33,2.0,3.5,91,0.00,BKN,,0.00,WeatherDisplay:10.37,2013-01-20 09:13:00,
2013-01-20 04:18:00,61.6,58.9,30.09,NNE,21,0.9,2.3,91,0.00,BKN,,0.00,WeatherDisplay:10.37,2013-01-20 09:18:00,
2013-01-20 04:23:00,61.6,58.9,30.10,NNW,341,2.5,4.0,91,0.00,BKN,,0.00,WeatherDisplay:10.37,2013-01-20 09:23:00,
2013-01-20 04:28:00,61.7,59.0,30.10,NE,36,1.6,3.5,91,0.00,BKN,,0.00,WeatherDisplay:10.37,2013-01-20 09:28:00,
2013-01-20 04:33:00,61.6,58.9,30.10,North,349,2.2,4.0,91,0.00,BKN,,0.00,WeatherDisplay:10.37,2013-01-20 09:33:00,
2013-01-20 04:38:00,61.6,58.9,30.10,NNE,30,0.4,2.0,91,0.00,BKN,,0.00,WeatherDisplay:10.37,2013-01-20 09:38:00,
2013-01-20 04:43:00,61.6,58.9,30.10,NNE,21,2.2,4.0,91,0.00,BKN,,0.00,WeatherDisplay:10.37,2013-01-20 09:43:00,
2013-01-20 04:48:00,61.6,58.9,30.09,NE,40,2.9,3.5,91,0.00,BKN,,0.00,WeatherDisplay:10.37,2013-01-20 09:48:00,
2013-01-20 04:53:00,61.6,58.9,30.09,NE,56,1.3,1.3,91,0.00,BKN,,0.00,WeatherDisplay:10.37,2013-01-20 09:53:00,
2013-01-20 04:58:00,61.6,58.9,30.09,NNE,16,0.4,2.3,91,0.00,BKN,,0.00,WeatherDisplay:10.37,2013-01-20 09:58:00,
2013-01-20 05:03:00,61.6,58.9,30.09,NE,53,0.1,3.5,91,0.00,BKN,,0.00,WeatherDisplay:10.37,2013-01-20 10:03:00,
2013-01-20 05:08:00,61.6,58.9,30.09,East,90,0.0,1.1,91,0.00,BKN,,0.00,WeatherDisplay:10.37,2013-01-20 10:08:00,
2013-01-20 05:13:00,61.5,58.8,30.09,NE,47,0.0,1.1,91,0.00,BKN,,0.00,WeatherDisplay:10.37,2013-01-20 10:13:00,
2013-01-20 05:18:00,61.5,58.8,30.10,North,7,0.7,1.1,91,0.00,BKN,,0.00,WeatherDisplay:10.37,2013-01-20 10:18:00,
2013-01-20 05:23:00,61.5,58.8,30.10,NE,51,0.0,2.3,91,0.00,BKN,,0.00,WeatherDisplay:10.37,2013-01-20 10:23:00,
2013-01-20 05:28:00,61.5,58.8,30.10,NNE,18,1.5,3.5,91,0.00,BKN,,0.00,WeatherDisplay:10.37,2013-01-20 10:28:00,
2013-01-20 05:33:00,61.5,58.8,30.10,NE,40,3.2,3.5,91,0.00,BKN,,0.00,WeatherDisplay:10.37,2013-01-20 10:33:00,
2013-01-20 05:38:00,61.5,58.8,30.09,NNE,33,1.7,5.0,91,0.00,BKN,,0.00,WeatherDisplay:10.37,2013-01-20 10:38:00,
2013-01-20 05:43:00,61.4,59.1,30.09,NNE,19,3.5,7.0,92,0.00,BKN,,0.00,WeatherDisplay:10.37,2013-01-20 10:43:00,
2013-01-20 05:48:00,61.4,58.7,30.09,NE,47,3.8,5.0,91,0.00,BKN,,0.00,WeatherDisplay:10.37,2013-01-20 10:48:00,
2013-01-20 05:53:00,61.4,59.1,30.10,North,357,1.8,4.0,92,0.00,BKN,,0.00,WeatherDisplay:10.37,2013-01-20 10:53:00,
2013-01-20 05:58:00,61.4,59.1,30.10,NNE,29,4.4,5.8,92,0.00,BKN,,0.00,WeatherDisplay:10.37,2013-01-20 10:58:00,
2013-01-20 06:03:00,61.3,59.0,30.10,North,351,2.3,4.6,92,0.00,BKN,,0.00,WeatherDisplay:10.37,2013-01-20 11:03:00,
2013-01-20 06:08:00,61.3,59.0,30.10,NNE,30,1.8,3.5,92,0.00,BKN,,0.00,WeatherDisplay:10.37,2013-01-20 11:08:00,
2013-01-20 06:13:00,61.3,59.0,30.11,NNE,30,0.0,0.0,92,0.00,BKN,,0.00,WeatherDisplay:10.37,2013-01-20 11:13:00,
2013-01-20 06:18:00,61.3,59.0,30.11,NNW,345,0.3,1.1,92,0.00,BKN,,0.00,WeatherDisplay:10.37,2013-01-20 11:18:00,
2013-01-20 06:23:00,61.2,58.9,30.12,NNE,27,1.8,3.5,92,0.00,BKN,,0.00,WeatherDisplay:10.37,2013-01-20 11:23:00,
2013-01-20 06:28:00,61.2,58.9,30.12,North,8,1.2,2.3,92,0.00,BKN,,0.00,WeatherDisplay:10.37,2013-01-20 11:28:00,
2013-01-20 06:33:00,61.2,58.9,30.12,North,356,0.9,2.3,92,0.00,BKN,,0.00,WeatherDisplay:10.37,2013-01-20 11:33:00,
2013-01-20 06:38:00,61.2,58.9,30.12,NNE,32,1.1,3.5,92,0.00,BKN,,0.00,WeatherDisplay:10.37,2013-01-20 11:38:00,
2013-01-20 06:43:00,61.1,58.8,30.12,NNE,20,0.7,3.5,92,0.00,BKN,,0.00,WeatherDisplay:10.37,2013-01-20 11:43:00,
2013-01-20 06:48:00,61.1,58.8,30.11,NNE,33,1.6,3.0,92,0.00,BKN,,0.00,WeatherDisplay:10.37,2013-01-20 11:48:00,
2013-01-20 06:53:00,61.0,58.7,30.11,NNE,27,0.5,3.0,92,0.00,BKN,,0.00,WeatherDisplay:10.37,2013-01-20 11:53:00,
2013-01-20 06:58:00,61.0,58.7,30.11,NNE,33,2.6,3.5,92,0.00,BKN,,0.00,WeatherDisplay:10.37,2013-01-20 11:58:00,
2013-01-20 07:04:00,61.0,58.7,30.12,NNE,16,0.9,3.5,92,0.00,BKN,,0.00,WeatherDisplay:10.37,2013-01-20 12:04:00,
2013-01-20 07:09:00,61.0,58.7,30.12,NNW,338,1.2,1.2,92,0.00,BKN,,0.00,WeatherDisplay:10.37,2013-01-20 12:09:00,
2013-01-20 07:13:00,61.0,58.7,30.12,NNE,20,1.6,3.5,92,0.00,BKN,,0.00,WeatherDisplay:10.37,2013-01-20 12:13:00,
2013-01-20 07:19:00,61.0,58.7,30.12,NE,44,2.8,4.6,92,0.00,BKN,,0.00,WeatherDisplay:10.37,2013-01-20 12:19:00,
2013-01-20 07:24:00,60.9,58.6,30.12,NNE,30,0.6,2.3,92,0.00,BKN,,0.00,WeatherDisplay:10.37,2013-01-20 12:24:00,
2013-01-20 07:29:00,60.9,58.6,30.12,NNE,32,2.4,4.0,92,0.00,BKN,,0.00,WeatherDisplay:10.37,2013-01-20 12:29:00,
2013-01-20 07:34:00,60.9,58.6,30.13,NNE,33,2.4,3.5,92,0.00,BKN,,0.00,WeatherDisplay:10.37,2013-01-20 12:34:00,
2013-01-20 07:39:00,61.0,58.7,30.13,NE,37,1.6,2.3,92,0.00,BKN,,0.00,WeatherDisplay:10.37,2013-01-20 12:39:00,
2013-01-20 07:44:00,61.0,58.7,30.13,NE,47,1.3,3.5,92,0.00,BKN,,0.00,WeatherDisplay:10.37,2013-01-20 12:44:00,
2013-01-20 07:49:00,61.0,58.7,30.13,NE,37,2.2,3.5,92,0.00,BKN,,0.00,WeatherDisplay:10.37,2013-01-20 12:49:00,
2013-01-20 07:54:00,61.1,58.8,30.13,NNE,26,1.7,3.5,92,0.00,BKN,,0.00,WeatherDisplay:10.37,2013-01-20 12:54:00,
2013-01-20 07:59:00,61.2,58.9,30.13,NNE,13,3.3,5.0,92,0.00,BKN,,0.00,WeatherDisplay:10.37,2013-01-20 12:59:00,
2013-01-20 08:04:00,61.3,59.0,30.13,NE,45,3.6,3.6,92,0.00,BKN,,0.00,WeatherDisplay:10.37,2013-01-20 13:04:00,
2013-01-20 08:09:00,61.3,59.0,30.13,ENE,58,1.6,3.5,92,0.00,BKN,,0.00,WeatherDisplay:10.37,2013-01-20 13:09:00,
2013-01-20 08:14:00,61.5,59.2,30.14,NNE,18,2.9,5.0,92,0.00,BKN,,0.00,WeatherDisplay:10.37,2013-01-20 13:14:00,
2013-01-20 08:19:00,61.6,59.3,30.14,North,9,2.3,3.5,92,0.00,BKN,,0.00,WeatherDisplay:10.37,2013-01-20 13:19:00,
2013-01-20 08:24:00,61.8,59.5,30.14,NE,49,4.1,7.0,92,0.00,BKN,,0.00,WeatherDisplay:10.37,2013-01-20 13:24:00,
2013-01-20 08:29:00,61.8,59.1,30.14,North,11,2.2,2.3,91,0.00,BKN,,0.00,WeatherDisplay:10.37,2013-01-20 13:29:00,
2013-01-20 08:34:00,61.9,59.2,30.14,NE,40,1.4,3.5,91,0.00,BKN,,0.00,WeatherDisplay:10.37,2013-01-20 13:34:00,
2013-01-20 08:39:00,62.0,59.3,30.15,NE,55,1.4,3.5,91,0.00,BKN,,0.00,WeatherDisplay:10.37,2013-01-20 13:39:00,
2013-01-20 08:44:00,62.1,59.4,30.15,North,8,4.7,4.7,91,0.00,BKN,,0.00,WeatherDisplay:10.37,2013-01-20 13:44:00,
2013-01-20 08:49:00,62.1,59.4,30.15,NNE,18,4.8,5.8,91,0.00,BKN,,0.00,WeatherDisplay:10.37,2013-01-20 13:49:00,
2013-01-20 08:54:00,62.1,59.4,30.15,NNE,13,2.1,3.0,91,0.00,BKN,,0.00,WeatherDisplay:10.37,2013-01-20 13:54:00,
2013-01-20 08:59:00,62.2,59.5,30.15,NNE,23,5.2,6.9,91,0.00,BKN,,0.00,WeatherDisplay:10.37,2013-01-20 13:59:00,
2013-01-20 09:04:00,62.2,59.5,30.15,NNE,30,2.0,5.8,91,0.00,BKN,,0.00,WeatherDisplay:10.37,2013-01-20 14:04:00,
2013-01-20 09:09:00,62.2,59.5,30.15,NNE,30,4.4,5.8,91,0.00,BKN,,0.00,WeatherDisplay:10.37,2013-01-20 14:09:00,
2013-01-20 09:14:00,62.4,59.7,30.15,North,4,1.4,3.5,91,0.00,BKN,,0.00,WeatherDisplay:10.37,2013-01-20 14:14:00,
2013-01-20 09:19:00,62.6,59.6,30.14,NE,37,3.9,5.8,90,0.00,BKN,,0.00,WeatherDisplay:10.37,2013-01-20 14:19:00,
2013-01-20 09:24:00,62.9,59.9,30.15,NE,39,2.9,4.0,90,0.00,BKN,,0.00,WeatherDisplay:10.37,2013-01-20 14:24:00,
2013-01-20 09:29:00,63.2,59.9,30.15,ENE,72,1.8,4.6,89,0.00,BKN,,0.00,WeatherDisplay:10.37,2013-01-20 14:29:00,
2013-01-20 09:34:00,63.7,60.4,30.15,NE,54,0.9,4.6,89,0.00,BKN,,0.00,WeatherDisplay:10.37,2013-01-20 14:34:00,
2013-01-20 09:39:00,64.1,60.5,30.15,NNE,27,3.2,3.5,88,0.00,BKN,,0.00,WeatherDisplay:10.37,2013-01-20 14:39:00,
2013-01-20 09:44:00,64.3,60.3,30.15,NE,34,3.8,3.8,87,0.00,BKN,,0.00,WeatherDisplay:10.37,2013-01-20 14:44:00,
2013-01-20 09:49:00,64.5,60.9,30.15,NNE,27,0.0,0.0,88,0.00,BKN,,0.00,WeatherDisplay:10.37,2013-01-20 14:49:00,
2013-01-20 09:54:00,64.8,60.8,30.15,ENE,70,2.4,5.8,87,0.00,BKN,,0.00,WeatherDisplay:10.37,2013-01-20 14:54:00,
2013-01-20 09:59:00,64.8,60.8,30.15,SE,131,0.4,3.5,87,0.00,BKN,,0.00,WeatherDisplay:10.37,2013-01-20 14:59:00,
2013-01-20 10:04:00,64.7,60.7,30.15,NNE,32,3.7,7.0,87,0.00,BKN,,0.00,WeatherDisplay:10.37,2013-01-20 15:04:00,
2013-01-20 10:09:00,64.7,60.7,30.15,NNE,31,2.2,3.5,87,0.00,BKN,,0.00,WeatherDisplay:10.37,2013-01-20 15:09:00,
2013-01-20 10:14:00,65.2,61.2,30.15,NNE,12,0.6,4.6,87,0.00,BKN,,0.00,WeatherDisplay:10.37,2013-01-20 15:14:00,
2013-01-20 10:19:00,65.8,61.5,30.15,East,82,1.2,5.8,86,0.00,BKN,,0.00,WeatherDisplay:10.37,2013-01-20 15:19:00,
2013-01-20 10:24:00,66.2,61.6,30.15,East,95,3.2,5.0,85,0.00,BKN,,0.00,WeatherDisplay:10.37,2013-01-20 15:24:00,
2013-01-20 10:29:00,66.3,61.7,30.15,NNE,33,2.9,9.2,85,0.00,BKN,,0.00,WeatherDisplay:10.37,2013-01-20 15:29:00,
2013-01-20 10:34:00,66.7,62.0,30.15,NE,40,1.1,3.0,85,0.00,BKN,,0.00,WeatherDisplay:10.37,2013-01-20 15:34:00,
2013-01-20 10:39:00,66.8,61.8,30.15,ENE,64,0.2,3.5,84,0.00,BKN,,0.00,WeatherDisplay:10.37,2013-01-20 15:39:00,
2013-01-20 10:44:00,67.1,62.1,30.15,NE,47,0.9,6.9,84,0.00,BKN,,0.00,WeatherDisplay:10.37,2013-01-20 15:44:00,
2013-01-20 10:49:00,67.4,62.1,30.15,NE,47,1.8,2.3,83,0.00,BKN,,0.00,WeatherDisplay:10.37,2013-01-20 15:49:00,
2013-01-20 10:54:00,67.8,62.4,30.15,East,87,1.0,1.1,83,0.00,BKN,,0.00,WeatherDisplay:10.37,2013-01-20 15:54:00,
2013-01-20 10:59:00,68.3,62.6,30.14,SE,143,0.0,2.3,82,0.00,BKN,,0.00,WeatherDisplay:10.37,2013-01-20 15:59:00,
2013-01-20 11:04:00,68.8,63.1,30.14,ENE,57,0.2,4.6,82,0.00,BKN,,0.00,WeatherDisplay:10.37,2013-01-20 16:04:00,
2013-01-20 11:09:00,69.1,63.0,30.14,NE,43,4.5,9.2,81,0.00,BKN,,0.00,WeatherDisplay:10.37,2013-01-20 16:09:00,
2013-01-20 11:14:00,69.6,63.2,30.12,NNE,30,3.0,4.6,80,0.00,BKN,,0.00,WeatherDisplay:10.37,2013-01-20 16:14:00,
2013-01-20 11:19:00,70.6,63.8,30.12,East,79,2.2,3.5,79,0.00,BKN,,0.00,WeatherDisplay:10.37,2013-01-20 16:19:00,
2013-01-20 11:24:00,71.4,63.8,30.12,East,97,2.9,6.0,77,0.00,BKN,,0.00,WeatherDisplay:10.37,2013-01-20 16:24:00,
2013-01-20 11:29:00,71.7,63.4,30.12,NE,43,4.2,9.0,75,0.00,BKN,,0.00,WeatherDisplay:10.37,2013-01-20 16:29:00,
2013-01-20 11:34:00,71.4,64.2,30.12,ENE,78,1.0,2.3,78,0.00,BKN,,0.00,WeatherDisplay:10.37,2013-01-20 16:34:00,
2013-01-20 11:39:00,72.2,64.2,30.12,WNW,285,0.0,3.5,76,0.00,BKN,,0.00,WeatherDisplay:10.37,2013-01-20 16:39:00,
2013-01-20 11:44:00,72.3,63.9,30.12,North,4,3.5,6.0,75,0.00,BKN,,0.00,WeatherDisplay:10.37,2013-01-20 16:44:00,
2013-01-20 11:49:00,71.5,63.5,30.12,North,8,3.4,5.8,76,0.00,BKN,,0.00,WeatherDisplay:10.37,2013-01-20 16:49:00,
2013-01-20 11:54:00,71.4,64.2,30.12,North,1,0.7,1.1,78,0.00,BKN,,0.00,WeatherDisplay:10.37,2013-01-20 16:54:00,
2013-01-20 11:59:00,71.4,63.8,30.11,NE,53,2.1,5.8,77,0.00,BKN,,0.00,WeatherDisplay:10.37,2013-01-20 16:59:00,
2013-01-20 12:04:00,71.7,64.1,30.11,ENE,71,0.6,1.1,77,0.00,BKN,,0.00,WeatherDisplay:10.37,2013-01-20 17:04:00,
2013-01-20 12:09:00,72.2,64.2,30.11,ENE,75,1.4,2.3,76,0.00,BKN,,0.00,WeatherDisplay:10.37,2013-01-20 17:09:00,
2013-01-20 12:14:00,72.3,64.3,30.11,SSE,149,1.3,2.0,76,0.00,BKN,,0.00,WeatherDisplay:10.37,2013-01-20 17:14:00,
2013-01-20 12:28:00,73.1,64.7,30.10,North,349,0.8,8.1,75,0.00,BKN,,0.00,WeatherDisplay:10.37,2013-01-20 17:28:00,
2013-01-20 12:33:00,73.6,64.4,30.10,NNW,333,1.8,3.5,73,0.00,BKN,,0.00,WeatherDisplay:10.37,2013-01-20 17:33:00,
2013-01-20 12:38:00,73.4,64.2,30.09,NE,49,2.3,5.8,73,0.00,BKN,,0.00,WeatherDisplay:10.37,2013-01-20 17:38:00,
2013-01-20 12:43:00,73.0,64.2,30.09,NE,34,2.7,3.5,74,0.00,BKN,,0.00,WeatherDisplay:10.37,2013-01-20 17:43:00,
2013-01-20 12:48:00,72.9,63.7,30.08,NE,47,4.8,6.9,73,0.00,BKN,,0.00,WeatherDisplay:10.37,2013-01-20 17:48:00,
2013-01-20 12:53:00,72.8,64.0,30.08,ESE,122,0.7,1.1,74,0.00,BKN,,0.00,WeatherDisplay:10.37,2013-01-20 17:53:00,
2013-01-20 12:58:00,72.8,64.0,30.08,ENE,67,2.5,5.8,74,0.00,BKN,,0.00,WeatherDisplay:10.37,2013-01-20 17:58:00,
2013-01-20 13:03:00,72.4,64.0,30.08,NE,44,2.7,4.6,75,0.00,BKN,,0.00,WeatherDisplay:10.37,2013-01-20 18:03:00,
2013-01-20 13:08:00,72.2,63.8,30.07,NNE,26,3.3,7.0,75,0.00,BKN,,0.00,WeatherDisplay:10.37,2013-01-20 18:08:00,
2013-01-20 13:13:00,71.8,63.8,30.07,NE,34,2.7,8.1,76,0.00,BKN,,0.00,WeatherDisplay:10.37,2013-01-20 18:13:00,
2013-01-20 13:18:00,71.8,64.2,30.07,North,355,0.6,3.0,77,0.00,BKN,,0.00,WeatherDisplay:10.37,2013-01-20 18:18:00,
2013-01-20 13:23:00,72.2,63.8,30.06,NNE,25,5.7,8.1,75,0.00,BKN,,0.00,WeatherDisplay:10.37,2013-01-20 18:23:00,
2013-01-20 13:28:00,72.2,63.8,30.06,NE,34,2.2,5.0,75,0.00,BKN,,0.00,WeatherDisplay:10.37,2013-01-20 18:28:00,
2013-01-20 13:33:00,72.4,64.4,30.06,NW,323,2.0,4.0,76,0.00,BKN,,0.00,WeatherDisplay:10.37,2013-01-20 18:33:00,
2013-01-20 14:12:00,72.7,64.3,30.04,NNW,340,0.0,3.5,75,0.00,CLR,,0.00,WeatherDisplay:10.37,2013-01-20 19:12:00,
2013-01-20 14:17:00,72.6,63.8,30.03,North,4,1.9,3.5,74,0.00,BKN,,0.00,WeatherDisplay:10.37,2013-01-20 19:17:00,
2013-01-20 14:22:00,72.2,63.8,30.04,NNE,30,2.8,5.0,75,0.00,BKN,,0.00,WeatherDisplay:10.37,2013-01-20 19:22:00,
2013-01-20 14:27:00,72.1,63.7,30.04,NNW,335,3.8,3.8,75,0.00,BKN,,0.00,WeatherDisplay:10.37,2013-01-20 19:27:00,
2013-01-20 14:32:00,72.0,64.0,30.03,NNW,330,1.6,3.5,76,0.00,BKN,,0.00,WeatherDisplay:10.37,2013-01-20 19:32:00,
2013-01-20 14:37:00,72.2,64.2,30.03,NE,37,2.1,4.0,76,0.00,BKN,,0.00,WeatherDisplay:10.37,2013-01-20 19:37:00,
2013-01-20 14:42:00,72.1,64.1,30.03,NNW,348,2.6,5.8,76,0.00,BKN,,0.00,WeatherDisplay:10.37,2013-01-20 19:42:00,
2013-01-20 14:47:00,72.1,64.1,30.03,North,350,4.4,6.9,76,0.00,BKN,,0.00,WeatherDisplay:10.37,2013-01-20 19:47:00,
2013-01-20 14:52:00,72.2,64.2,30.03,NW,318,3.7,6.0,76,0.00,BKN,,0.00,WeatherDisplay:10.37,2013-01-20 19:52:00,
2013-01-20 14:57:00,72.3,63.9,30.03,NNW,338,0.7,3.5,75,0.00,BKN,,0.00,WeatherDisplay:10.37,2013-01-20 19:57:00,
2013-01-20 15:02:00,73.1,63.9,30.02,NE,49,2.6,5.8,73,0.00,FEW,,0.00,WeatherDisplay:10.37,2013-01-20 20:02:00,
2013-01-20 15:07:00,73.2,64.0,30.02,NW,319,4.1,5.8,73,0.00,FEW,,0.00,WeatherDisplay:10.37,2013-01-20 20:07:00,
2013-01-20 15:12:00,73.6,64.4,30.02,North,358,2.0,3.5,73,0.00,FEW,,0.00,WeatherDisplay:10.37,2013-01-20 20:12:00,
2013-01-20 15:17:00,74.3,64.3,30.02,NW,326,3.7,3.7,71,0.00,FEW,,0.00,WeatherDisplay:10.37,2013-01-20 20:17:00,
2013-01-20 15:22:00,73.7,64.1,30.02,NNW,332,2.8,5.8,72,0.00,BKN,,0.00,WeatherDisplay:10.37,2013-01-20 20:22:00,
2013-01-20 15:27:00,73.9,64.3,30.02,WNW,300,2.5,4.0,72,0.00,BKN,,0.00,WeatherDisplay:10.37,2013-01-20 20:27:00,
2013-01-20 15:32:00,73.9,64.3,30.02,WNW,299,2.5,5.8,72,0.00,BKN,,0.00,WeatherDisplay:10.37,2013-01-20 20:32:00,
2013-01-20 15:37:00,73.8,64.2,30.02,NE,40,1.7,4.6,72,0.00,BKN,,0.00,WeatherDisplay:10.37,2013-01-20 20:37:00,
2013-01-20 15:42:00,73.4,63.8,30.02,NNW,338,2.4,3.5,72,0.00,BKN,,0.00,WeatherDisplay:10.37,2013-01-20 20:42:00,
2013-01-20 15:47:00,73.6,64.0,30.02,NNE,14,1.6,2.3,72,0.00,BKN,,0.00,WeatherDisplay:10.37,2013-01-20 20:47:00,
2013-01-20 15:52:00,73.6,64.0,30.02,NNW,329,3.3,4.6,72,0.00,BKN,,0.00,WeatherDisplay:10.37,2013-01-20 20:52:00,
2013-01-20 15:57:00,73.7,64.1,30.02,NNW,342,1.9,4.6,72,0.00,BKN,,0.00,WeatherDisplay:10.37,2013-01-20 20:57:00,
2013-01-20 16:02:00,73.7,64.1,30.02,NNW,345,1.8,4.6,72,0.00,SCT,,0.00,WeatherDisplay:10.37,2013-01-20 21:02:00,
2013-01-20 16:07:00,74.0,64.0,30.02,NNW,342,1.4,3.5,71,0.00,SCT,,0.00,WeatherDisplay:10.37,2013-01-20 21:07:00,
2013-01-20 16:12:00,74.1,64.1,30.02,North,1,2.3,4.0,71,0.00,SCT,,0.00,WeatherDisplay:10.37,2013-01-20 21:12:00,
2013-01-20 16:17:00,74.3,64.3,30.02,North,360,2.0,4.6,71,0.00,SCT,,0.00,WeatherDisplay:10.37,2013-01-20 21:17:00,
2013-01-20 16:22:00,74.4,64.0,30.02,NNW,343,2.6,4.6,70,0.00,SCT,,0.00,WeatherDisplay:10.37,2013-01-20 21:22:00,
2013-01-20 16:27:00,73.9,63.9,30.02,North,4,4.3,6.9,71,0.00,SCT,,0.00,WeatherDisplay:10.37,2013-01-20 21:27:00,
2013-01-20 16:32:00,73.4,63.8,30.02,NNE,16,2.7,8.1,72,0.00,SCT,,0.00,WeatherDisplay:10.37,2013-01-20 21:32:00,
2013-01-20 16:37:00,72.8,63.2,30.02,North,6,3.3,4.6,72,0.00,SCT,,0.00,WeatherDisplay:10.37,2013-01-20 21:37:00,
2013-01-20 16:42:00,72.5,63.0,30.02,NNW,340,6.0,6.9,72,0.00,SCT,,0.00,WeatherDisplay:10.37,2013-01-20 21:42:00,
2013-01-20 16:47:00,72.2,63.1,30.02,NNW,345,2.6,5.8,73,0.00,SCT,,0.00,WeatherDisplay:10.37,2013-01-20 21:47:00,
2013-01-20 16:52:00,72.2,63.4,30.03,WNW,287,2.9,4.6,74,0.00,SCT,,0.00,WeatherDisplay:10.37,2013-01-20 21:52:00,
2013-01-20 16:58:00,71.7,63.4,30.03,NW,326,2.6,3.5,75,0.00,SCT,,0.00,WeatherDisplay:10.37,2013-01-20 21:58:00,
2013-01-20 17:03:00,71.1,63.5,30.03,NW,318,1.8,7.0,77,0.00,SCT,,0.00,WeatherDisplay:10.37,2013-01-20 22:03:00,
2013-01-20 17:08:00,70.6,63.0,30.03,WNW,296,1.3,2.3,77,0.00,SCT,,0.00,WeatherDisplay:10.37,2013-01-20 22:08:00,
2013-01-20 17:13:00,70.3,63.5,30.03,NNW,333,1.5,3.5,79,0.00,BKN,,0.00,WeatherDisplay:10.37,2013-01-20 22:13:00,
2013-01-20 17:18:00,70.1,63.3,30.03,NE,41,0.0,1.1,79,0.00,BKN,,0.00,WeatherDisplay:10.37,2013-01-20 22:18:00,
2013-01-20 17:23:00,69.9,63.1,30.03,NW,315,0.8,2.3,79,0.00,BKN,,0.00,WeatherDisplay:10.37,2013-01-20 22:23:00,
2013-01-20 17:28:00,69.6,62.8,30.03,NW,311,0.0,3.5,79,0.00,BKN,,0.00,WeatherDisplay:10.37,2013-01-20 22:28:00,
2013-01-20 17:33:00,69.3,62.9,30.03,West,270,0.7,2.3,80,0.00,BKN,,0.00,WeatherDisplay:10.37,2013-01-20 22:33:00,
2013-01-20 17:38:00,69.2,62.8,30.04,NW,310,0.3,2.3,80,0.00,BKN,,0.00,WeatherDisplay:10.37,2013-01-20 22:38:00,
2013-01-20 17:43:00,68.9,62.8,30.04,NNW,329,0.6,2.3,81,0.00,BKN,,0.00,WeatherDisplay:10.37,2013-01-20 22:43:00,
2013-01-20 17:48:00,68.7,63.0,30.04,NW,305,0.3,1.1,82,0.00,BKN,,0.00,WeatherDisplay:10.37,2013-01-20 22:48:00,
2013-01-20 17:53:00,68.5,63.1,30.04,North,8,0.0,1.1,83,0.00,BKN,,0.00,WeatherDisplay:10.37,2013-01-20 22:53:00,
2013-01-20 17:58:00,68.2,62.8,30.04,NNW,345,0.0,0.0,83,0.00,BKN,,0.00,WeatherDisplay:10.37,2013-01-20 22:58:00,
2013-01-20 18:03:00,67.9,62.5,30.04,NNE,24,1.1,2.3,83,0.00,FEW,,0.00,WeatherDisplay:10.37,2013-01-20 23:03:00,
2013-01-20 18:08:00,67.6,62.6,30.04,NW,321,0.0,0.0,84,0.00,FEW,,0.00,WeatherDisplay:10.37,2013-01-20 23:08:00,
2013-01-20 18:13:00,67.3,62.3,30.04,NW,321,0.0,0.0,84,0.00,FEW,,0.00,WeatherDisplay:10.37,2013-01-20 23:13:00,
2013-01-20 18:18:00,67.0,62.3,30.04,NW,322,0.0,0.0,85,0.00,FEW,,0.00,WeatherDisplay:10.37,2013-01-20 23:18:00,
2013-01-20 18:23:00,66.8,62.1,30.04,NW,322,0.0,0.0,85,0.00,FEW,,0.00,WeatherDisplay:10.37,2013-01-20 23:23:00,
2013-01-20 18:28:00,66.6,62.3,30.04,NW,321,0.0,0.0,86,0.00,FEW,,0.00,WeatherDisplay:10.37,2013-01-20 23:28:00,
2013-01-20 18:33:00,66.3,62.0,30.04,NW,322,0.0,0.0,86,0.00,FEW,,0.00,WeatherDisplay:10.37,2013-01-20 23:33:00,
2013-01-20 18:38:00,66.1,61.8,30.04,NW,322,0.0,0.0,86,0.00,FEW,,0.00,WeatherDisplay:10.37,2013-01-20 23:38:00,
2013-01-20 18:43:00,65.8,61.8,30.04,NW,321,0.0,0.0,87,0.00,FEW,,0.00,WeatherDisplay:10.37,2013-01-20 23:43:00,
2013-01-20 18:48:00,65.6,61.9,30.05,NW,321,0.0,0.0,88,0.00,FEW,,0.00,WeatherDisplay:10.37,2013-01-20 23:48:00,
2013-01-20 18:53:00,65.4,61.8,30.04,NW,322,0.0,0.0,88,0.00,FEW,,0.00,WeatherDisplay:10.37,2013-01-20 23:53:00,
2013-01-20 18:58:00,65.2,61.6,30.05,NW,321,0.0,0.0,88,0.00,FEW,,0.00,WeatherDisplay:10.37,2013-01-20 23:58:00,
2013-01-20 19:03:00,65.0,61.7,30.05,NW,321,0.0,0.0,89,0.00,CLR,,0.00,WeatherDisplay:10.37,2013-01-21 00:03:00,
2013-01-20 19:08:00,64.9,61.9,30.05,NW,321,0.0,0.0,90,0.00,CLR,,0.00,WeatherDisplay:10.37,2013-01-21 00:08:00,
2013-01-20 19:13:00,64.7,61.7,30.05,NW,322,0.0,0.0,90,0.00,CLR,,0.00,WeatherDisplay:10.37,2013-01-21 00:13:00,
2013-01-20 19:18:00,64.5,61.5,30.05,NW,321,0.0,0.0,90,0.00,CLR,,0.00,WeatherDisplay:10.37,2013-01-21 00:18:00,
2013-01-20 19:23:00,64.3,61.3,30.05,NW,321,0.0,0.0,90,0.00,CLR,,0.00,WeatherDisplay:10.37,2013-01-21 00:23:00,
2013-01-20 19:28:00,64.1,61.4,30.05,NW,321,0.0,0.0,91,0.00,CLR,,0.00,WeatherDisplay:10.37,2013-01-21 00:28:00,
2013-01-20 19:33:00,63.9,61.2,30.05,NW,321,0.0,0.0,91,0.00,CLR,,0.00,WeatherDisplay:10.37,2013-01-21 00:33:00,
2013-01-20 19:38:00,63.8,61.1,30.05,NW,321,0.0,0.0,91,0.00,CLR,,0.00,WeatherDisplay:10.37,2013-01-21 00:38:00,
2013-01-20 19:43:00,63.7,61.3,30.05,NW,321,0.0,0.0,92,0.00,CLR,,0.00,WeatherDisplay:10.37,2013-01-21 00:43:00,
2013-01-20 19:48:00,63.6,60.9,30.05,NW,321,0.0,0.0,91,0.00,CLR,,0.00,WeatherDisplay:10.37,2013-01-21 00:48:00,
2013-01-20 19:53:00,63.5,61.1,30.05,NW,321,0.0,0.0,92,0.00,CLR,,0.00,WeatherDisplay:10.37,2013-01-21 00:53:00,
2013-01-20 19:58:00,63.5,61.1,30.05,NW,321,0.0,0.0,92,0.00,CLR,,0.00,WeatherDisplay:10.37,2013-01-21 00:58:00,
2013-01-20 20:03:00,63.6,61.5,30.05,NW,321,0.0,0.0,93,0.00,BKN,,0.00,WeatherDisplay:10.37,2013-01-21 01:03:00,
2013-01-20 20:08:00,63.6,61.2,30.05,NW,321,0.0,0.0,92,0.00,BKN,,0.00,WeatherDisplay:10.37,2013-01-21 01:08:00,
2013-01-20 20:21:00,63.7,61.6,30.05,NW,321,0.0,0.0,93,0.00,BKN,,0.00,WeatherDisplay:10.37,2013-01-21 01:21:00,
2013-01-20 20:26:00,63.8,61.7,30.06,NW,321,0.0,0.0,93,0.00,BKN,,0.00,WeatherDisplay:10.37,2013-01-21 01:26:00,
2013-01-20 20:32:00,64.0,62.2,30.06,NW,321,0.0,0.0,94,0.00,BKN,,0.00,WeatherDisplay:10.37,2013-01-21 01:32:00,
2013-01-20 20:37:00,64.1,62.0,30.06,NW,322,0.0,0.0,93,0.00,BKN,,0.00,WeatherDisplay:10.37,2013-01-21 01:37:00,
2013-01-20 20:43:00,64.3,62.2,30.06,NW,322,0.0,0.0,93,0.00,BKN,,0.00,WeatherDisplay:10.37,2013-01-21 01:43:00,
2013-01-20 20:48:00,64.5,62.4,30.06,NW,322,0.0,0.0,93,0.00,BKN,,0.00,WeatherDisplay:10.37,2013-01-21 01:48:00,
2013-01-20 20:53:00,64.7,62.6,30.06,NW,321,0.0,0.0,93,0.00,BKN,,0.00,WeatherDisplay:10.37,2013-01-21 01:53:00,
2013-01-20 20:58:00,64.7,62.6,30.06,NW,322,0.0,0.0,93,0.00,BKN,,0.00,WeatherDisplay:10.37,2013-01-21 01:58:00,
2013-01-20 21:03:00,64.9,62.8,30.06,NW,321,0.0,0.0,93,0.00,BKN,,0.00,WeatherDisplay:10.37,2013-01-21 02:03:00,
2013-01-20 21:08:00,65.0,62.6,30.06,NW,321,0.0,0.0,92,0.00,BKN,,0.00,WeatherDisplay:10.37,2013-01-21 02:08:00,
2013-01-20 21:13:00,65.1,62.7,30.06,NW,323,0.0,0.0,92,0.00,BKN,,0.00,WeatherDisplay:10.37,2013-01-21 02:13:00,
2013-01-20 21:18:00,65.2,62.8,30.06,North,356,0.3,1.1,92,0.00,BKN,,0.00,WeatherDisplay:10.37,2013-01-21 02:18:00,
2013-01-20 21:23:00,65.4,63.0,30.07,NNE,19,0.0,0.0,92,0.00,OVC,,0.00,WeatherDisplay:10.37,2013-01-21 02:23:00,
2013-01-20 21:28:00,65.4,63.0,30.07,NNE,21,0.5,1.1,92,0.00,OVC,,0.00,WeatherDisplay:10.37,2013-01-21 02:28:00,
2013-01-20 21:33:00,65.6,62.9,30.07,NE,37,0.0,1.1,91,0.00,OVC,,0.00,WeatherDisplay:10.37,2013-01-21 02:33:00,
2013-01-20 21:38:00,65.7,63.0,30.07,NE,37,0.0,0.0,91,0.00,OVC,,0.00,WeatherDisplay:10.37,2013-01-21 02:38:00,
2013-01-20 21:43:00,65.8,62.8,30.07,ENE,64,0.0,0.0,90,0.00,OVC,,0.00,WeatherDisplay:10.37,2013-01-21 02:43:00,
2013-01-20 21:48:00,65.8,62.8,30.07,WSW,252,0.0,0.0,90,0.00,OVC,,0.00,WeatherDisplay:10.37,2013-01-21 02:48:00,
2013-01-20 21:53:00,65.8,62.5,30.07,NNE,27,1.7,3.5,89,0.00,OVC,,0.00,WeatherDisplay:10.37,2013-01-21 02:53:00,
2013-01-20 21:58:00,66.1,62.4,30.07,NNE,27,0.0,0.0,88,0.00,OVC,,0.00,WeatherDisplay:10.37,2013-01-21 02:58:00,
2013-01-20 22:03:00,66.2,62.5,30.07,East,79,1.5,3.5,88,0.00,OVC,,0.00,WeatherDisplay:10.37,2013-01-21 03:03:00,
2013-01-20 22:08:00,66.4,62.4,30.08,SSW,193,0.0,0.0,87,0.00,OVC,,0.00,WeatherDisplay:10.37,2013-01-21 03:08:00,
2013-01-20 22:13:00,66.4,62.4,30.08,East,94,0.0,2.3,87,0.00,OVC,,0.00,WeatherDisplay:10.37,2013-01-21 03:13:00,
2013-01-20 22:18:00,66.4,62.1,30.07,SE,141,0.4,2.3,86,0.00,OVC,,0.00,WeatherDisplay:10.37,2013-01-21 03:18:00,
2013-01-20 22:23:00,66.3,62.0,30.07,North,6,0.1,2.3,86,0.00,OVC,,0.00,WeatherDisplay:10.37,2013-01-21 03:23:00,
2013-01-20 22:28:00,66.3,62.0,30.08,NE,48,2.0,3.5,86,0.00,OVC,,0.00,WeatherDisplay:10.37,2013-01-21 03:28:00,
2013-01-20 22:33:00,66.2,61.9,30.08,ESE,107,0.1,2.0,86,0.00,OVC,,0.00,WeatherDisplay:10.37,2013-01-21 03:33:00,
2013-01-20 22:38:00,66.2,61.9,30.08,ENE,64,0.2,2.3,86,0.00,OVC,,0.00,WeatherDisplay:10.37,2013-01-21 03:38:00,
2013-01-20 22:43:00,66.1,61.8,30.08,ENE,61,1.0,2.3,86,0.00,OVC,,0.00,WeatherDisplay:10.37,2013-01-21 03:43:00,
2013-01-20 22:48:00,66.1,61.8,30.08,ESE,110,0.0,2.3,86,0.00,OVC,,0.00,WeatherDisplay:10.37,2013-01-21 03:48:00,
2013-01-20 22:53:00,66.0,61.7,30.08,SW,221,0.1,2.3,86,0.00,OVC,,0.00,WeatherDisplay:10.37,2013-01-21 03:53:00,
2013-01-20 22:58:00,65.9,61.3,30.08,South,183,1.9,5.8,85,0.00,OVC,,0.00,WeatherDisplay:10.37,2013-01-21 03:58:00,
2013-01-20 23:03:00,65.9,61.3,30.08,East,97,1.8,3.0,85,0.00,OVC,,0.00,WeatherDisplay:10.37,2013-01-21 04:03:00,
2013-01-20 23:08:00,65.8,61.2,30.08,WNW,298,1.3,3.5,85,0.00,OVC,,0.00,WeatherDisplay:10.37,2013-01-21 04:08:00,
2013-01-20 23:13:00,65.8,61.2,30.08,ESE,103,3.2,5.8,85,0.00,OVC,,0.00,WeatherDisplay:10.37,2013-01-21 04:13:00,
2013-01-20 23:18:00,65.7,61.1,30.08,ESE,117,1.6,6.0,85,0.00,OVC,,0.00,WeatherDisplay:10.37,2013-01-21 04:18:00,
2013-01-20 23:23:00,65.7,61.1,30.08,NE,45,1.5,4.6,85,0.00,OVC,,0.00,WeatherDisplay:10.37,2013-01-21 04:23:00,
2013-01-20 23:28:00,65.6,61.0,30.08,NE,47,2.1,3.5,85,0.00,OVC,,0.00,WeatherDisplay:10.37,2013-01-21 04:28:00,
2013-01-20 23:33:00,65.5,60.9,30.07,ESE,115,0.9,3.5,85,0.00,OVC,,0.00,WeatherDisplay:10.37,2013-01-21 04:33:00,
2013-01-20 23:38:00,65.4,60.8,30.08,NE,43,0.0,1.1,85,0.00,OVC,,0.00,WeatherDisplay:10.37,2013-01-21 04:38:00,
2013-01-20 23:43:00,65.3,60.7,30.07,NE,34,1.9,3.0,85,0.00,OVC,,0.00,WeatherDisplay:10.37,2013-01-21 04:43:00,
2013-01-20 23:49:00,65.3,60.7,30.08,SE,131,0.0,1.1,85,0.00,OVC,,0.00,WeatherDisplay:10.37,2013-01-21 04:49:00,
2013-01-20 23:54:00,65.2,60.6,30.08,East,88,0.0,3.5,85,0.00,OVC,,0.00,WeatherDisplay:10.37,2013-01-21 04:54:00,
2013-01-20 23:59:00,65.1,60.8,30.07,North,350,1.6,3.5,86,0.00,OVC,,0.00,WeatherDisplay:10.37,2013-01-21 04:59:00,